Location: Pasadena, ca
(34.1243°N, 118.1037°W)
Time: 04:39:29
(UTC-07:00)

Tiangong 2 - Pass Details

Date: 27 May 2018
Orbit: 292 x 298 km, 42.8° (Epoch: 17 June)

Event Time Altitude Azimuth Distance (km) Brightness Sun altitude
Rises 20:16:18 0° 279° (W) 1,981 6.2 -4.5°
Reaches altitude 10° 20:18:39 10° 301° (WNW) 1,157 5.5 -5.0°
Maximum altitude 20:20:29 17° 346° (NNW) 849 3.5 -5.3°
Drops below altitude 10° 20:22:19 10° 31° (NNE) 1,154 3.5 -5.6°
Enters shadow 20:26:16 -5° 60° (ENE) 2,601 5.0 -6.3°
